Tracking 28531 objects as of 27-Feb-2024
HD Live streaming from Space Station
objects crossing your sky now

FLOCK 4Y 29

Track FLOCK 4Y 29 now!
10-day predictions
FLOCK 4Y 29 is classified as:


NORAD ID: 55030
Int'l Code: 2023-001X
Perigee: 488.0 km
Apogee: 500.9 km
Inclination: 97.4 °
Period: 94.4 minutes
Semi major axis: 6865 km
RCS: Unknown
Launch date: January 3, 2023
Source: United States (US)
Launch site: AIR FORCE EASTERN TEST RANGE (AFETR)
Your satellite tracking list
Your tracking list is empty




NASA's NSSDC Master Catalog

Two Line Element Set (TLE):
1 55030U 23001X   24057.71200468  .00024511  00000-0  94823-3 0  9997
2 55030  97.4392 120.2191 0009452 190.4511 169.6533 15.26157868 63782
Source of the keplerian elements: AFSPC